Probability
19 19 26 26 19 32 26 19 19 19 23 19 23 23 19 19 19 19 19 19 16 16 16 10 19 19 23 23 23 23 19 13 16 6 6 3 6 6 6 6 0 3 10
23 23 23 23 19 26 23 19 19 19 16 23 26 29 29 23 23 19 19 13 13 13 10 13 16 16 19 23 19 19 16 10 13 10 10 6 6 6 0 3 6 6 3
19 23 23 29 19 23 23 19 19 19 16 19 26 23 19 19 10 13 13 10 10 10 6 10 6 16 13 19 19 23 16 13 10 13 10 6 3 3 3 3 3 6 10
16 23 23 29 26 26 19 23 26 26 23 26 23 16 16 16 16 19 13 13 13 13 6 6 3 3 3 16 13 10 13 16 13 13 6 6 3 0 3 3 3 6 6
16 19 19 23 19 26 19 16 23 23 26 26 26 26 16 16 16 13 6 16 16 10 3 3 3 3 3 10 10 13 13 13 16 16 10 6 6 0 0 3 6 3 3
13 16 19 23 23 23 19 16 19 19 26 26 32 29 23 23 16 19 10 10 10 10 0 0 3 3 3 6 10 13 13 13 10 10 10 10 6 3 0 0 3 3 0
16 10 16 19 23 19 19 19 16 19 23 19 23 23 23 23 19 13 6 6 6 6 6 0 3 3 6 6 10 13 13 10 10 10 6 3 10 6 10 10 0 6 3
19 13 10 19 19 19 19 19 16 16 13 16 19 16 19 19 13 16 3 0 0 0 0 0 3 3 3 0 6 6 10 10 10 10 13 13 13 13 10 6 6 6 6
23 16 13 10 16 16 16 13 16 13 13 13 16 19 19 19 13 13 0 0 6 3 3 3 3 3 6 6 10 6 10 10 10 13 13 13 10 10 10 6 10 6 6
19 16 13 13 13 13 16 13 13 10 10 10 10 6 13 13 10 3 6 0 3 3 6 6 0 3 0 6 13 3 10 13 13 16 10 10 13 10 6 6 3 3 13
16 16 16 16 13 16 13 13 13 10 13 10 10 10 13 13 10 10 3 3 6 10 6 10 10 3 0 0 6 3 10 10 13 10 10 10 6 6 6 6 6 3 10
13 10 13 10 16 10 10 16 13 10 10 10 16 13 13 13 10 6 3 3 6 6 6 6 3 6 3 3 3 3 3 10 13 13 10 6 3 10 3 6 6 6 13
19 10 13 13 13 19 13 13 16 16 10 16 13 13 10 13 10 13 6 6 6 6 6 3 3 3 3 6 6 3 6 10 10 10 6 6 10 10 6 6 10 10 6
19 19 16 16 16 19 16 16 16 16 16 16 16 19 19 13 13 13 10 6 6 6 6 6 3 3 3 3 3 6 6 13 10 10 3 3 6 6 6 6 6 10 10
16 19 19 23 23 26 23 19 19 16 16 16 13 13 19 19 19 13 6 6 6 6 6 6 6 6 3 0 0 6 0 6 6 3 6 6 3 3 0 0 10 6 13
19 19 19 19 19 26 26 23 26 23 19 16 13 10 10 16 16 16 10 10 10 6 6 6 6 6 0 0 0 0 10 3 0 6 3 3 0 0 0 0 0 0 6
10 16 19 23 29 32 32 29 26 23 16 13 6 10 13 13 13 10 6 10 10 6 6 10 6 6 6 0 0 0 0 3 13 13 10 0 0 0 0 0 0 0 0
10 19 19 23 32 32 29 29 26 23 23 16 10 13 10 10 10 10 10 10 19 13 10 10 6 10 6 0 0 0 0 3 10 10 10 10 10 0 0 0 0 3 0
16 26 23 23 26 29 29 26 26 23 13 13 13 13 6 6 13 13 13 16 23 16 13 10 6 6 6 0 0 0 3 6 3 6 10 6 6 0 0 0 0 0 3
19 16 19 19 26 29 32 32 23 23 16 13 13 10 6 6 6 13 16 19 23 16 6 3 6 6 10 0 0 0 0 3 10 3 6 0 0 0 0 3 3 3 3
13 10 13 16 19 23 29 29 26 19 19 13 10 10 10 13 13 19 19 19 13 16 6 6 6 6 0 0 0 0 0 3 3 3 3 0 0 0 0 0 3 0 3
13 16 16 19 19 19 23 26 26 19 19 13 10 10 16 10 6 16 16 10 10 6 6 3 10 6 0 0 0 0 0 0 0 0 3 0 0 0 0 0 0 0 0
10 13 13 16 19 19 19 19 23 23 23 23 19 19 16 19 16 16 10 10 6 0 0 3 3 3 0 0 0 0 0 0 0 0 0 0 0 0 0 0 0 0 0
13 10 10 19 19 16 16 16 19 23 19 19 16 19 16 16 16 16 10 10 10 0 0 0 3 3 0 3 0 0 0 0 0 0 0 0 0 0 0 0 0 0 0
10 10 10 16 13 13 16 19 19 23 23 19 16 16 13 13 16 10 13 10 6 0 3 3 6 6 3 0 0 0 0 0 0 0 0 0 0 0 0 0 0 0 0
10 10 10 10 10 10 10 13 19 19 23 16 13 13 13 10 3 6 6 0 0 0 0 0 0 3 0 0 0 0 0 0 0 0 0 0 0 0 0 0 0 0 0
Height
5850 5849 5848 5847 5846 5846 5844 5843 5841 5840 5838 5837 5835 5834 5833 5831 5830 5828 5827 5826 5824 5823 5821 5819 5818 5818 5818 5817 5817 5816 5817 5817 5817 5817 5817 5818 5818 5819 5820 5821 5822 5822 5823
5846 5845 5844 5843 5843 5842 5840 5839 5837 5836 5834 5833 5831 5830 5829 5827 5826 5824 5823 5821 5820 5819 5817 5816 5814 5814 5813 5813 5813 5813 5813 5812 5812 5812 5812 5813 5814 5814 5815 5816 5817 5817 5818
5842 5841 5840 5839 5838 5837 5836 5835 5833 5832 5830 5828 5827 5826 5824 5823 5822 5820 5819 5817 5816 5815 5813 5812 5811 5810 5809 5809 5809 5809 5809 5808 5808 5808 5808 5808 5809 5809 5810 5811 5811 5812 5812
5838 5837 5836 5835 5834 5833 5832 5830 5829 5828 5826 5824 5823 5821 5820 5819 5818 5816 5815 5813 5811 5810 5809 5808 5807 5806 5805 5805 5804 5804 5804 5803 5803 5803 5803 5803 5804 5805 5805 5806 5806 5806 5807
5834 5833 5831 5831 5830 5829 5827 5826 5825 5823 5822 5820 5818 5817 5816 5815 5813 5812 5811 5809 5807 5806 5805 5804 5803 5802 5801 5800 5800 5799 5799 5799 5798 5798 5798 5798 5799 5799 5800 5800 5800 5801 5801
5830 5829 5827 5826 5825 5824 5823 5822 5820 5818 5817 5815 5814 5812 5811 5810 5809 5807 5806 5805 5803 5802 5801 5800 5798 5797 5796 5796 5795 5795 5794 5794 5794 5793 5793 5793 5793 5794 5794 5794 5794 5795 5795
5825 5824 5823 5822 5821 5820 5819 5817 5816 5814 5812 5810 5809 5808 5806 5805 5804 5803 5801 5800 5799 5798 5796 5795 5794 5793 5792 5791 5790 5790 5790 5789 5789 5788 5788 5788 5788 5788 5788 5788 5788 5789 5789
5820 5819 5818 5817 5817 5816 5814 5813 5811 5810 5808 5806 5804 5803 5802 5801 5800 5798 5797 5795 5794 5793 5792 5791 5790 5788 5787 5786 5786 5785 5785 5784 5784 5784 5783 5783 5783 5782 5782 5782 5782 5782 5783
5815 5814 5814 5813 5812 5811 5810 5808 5807 5805 5803 5802 5800 5799 5798 5797 5795 5794 5792 5791 5789 5788 5787 5786 5785 5784 5783 5782 5781 5780 5780 5780 5779 5779 5778 5778 5777 5777 5777 5777 5777 5777 5777
5811 5810 5809 5808 5808 5807 5805 5804 5802 5801 5799 5798 5796 5795 5794 5793 5791 5790 5788 5786 5784 5783 5782 5781 5780 5779 5778 5777 5776 5776 5775 5775 5775 5774 5773 5773 5772 5772 5771 5771 5771 5771 5771
5806 5806 5805 5804 5803 5802 5801 5799 5798 5797 5795 5794 5792 5791 5790 5788 5787 5785 5784 5782 5780 5779 5778 5777 5775 5774 5773 5772 5772 5771 5771 5770 5770 5769 5769 5768 5767 5767 5766 5766 5765 5765 5765
5802 5801 5800 5799 5798 5797 5796 5795 5794 5792 5791 5790 5788 5787 5786 5784 5783 5781 5779 5777 5776 5774 5773 5772 5771 5770 5769 5768 5767 5767 5766 5766 5765 5765 5764 5764 5763 5762 5761 5760 5760 5760 5759
5797 5796 5795 5795 5794 5793 5792 5790 5789 5788 5787 5786 5784 5783 5782 5780 5779 5777 5775 5773 5772 5770 5769 5767 5767 5766 5765 5763 5763 5762 5762 5761 5761 5760 5759 5759 5758 5757 5756 5755 5755 5754 5753
5793 5792 5791 5790 5789 5788 5787 5786 5785 5784 5783 5781 5780 5779 5778 5776 5774 5773 5771 5769 5768 5766 5765 5763 5762 5761 5760 5759 5758 5758 5757 5757 5756 5755 5755 5754 5753 5752 5751 5750 5749 5748 5747
5788 5787 5787 5786 5785 5784 5783 5782 5781 5780 5778 5777 5776 5775 5773 5772 5770 5768 5767 5765 5764 5762 5761 5759 5758 5757 5756 5755 5754 5754 5753 5753 5752 5751 5750 5749 5748 5747 5745 5744 5743 5742 5741
5784 5783 5782 5781 5781 5780 5779 5778 5777 5776 5775 5773 5772 5770 5769 5767 5766 5764 5763 5761 5760 5759 5757 5756 5754 5753 5752 5751 5750 5749 5748 5748 5747 5746 5744 5743 5742 5741 5740 5738 5737 5736 5735
5779 5778 5777 5777 5776 5775 5774 5773 5772 5771 5770 5769 5767 5766 5764 5763 5762 5760 5759 5757 5756 5754 5753 5752 5750 5749 5748 5747 5746 5745 5744 5743 5742 5740 5739 5738 5737 5735 5734 5733 5731 5730 5728
5773 5773 5772 5771 5771 5770 5769 5768 5767 5766 5765 5764 5762 5761 5760 5758 5757 5756 5754 5753 5752 5750 5749 5747 5746 5745 5743 5742 5741 5740 5739 5738 5737 5735 5734 5732 5731 5729 5728 5727 5725 5724 5722
5768 5767 5767 5766 5765 5765 5764 5763 5762 5761 5759 5758 5757 5756 5755 5754 5753 5751 5750 5749 5747 5745 5744 5742 5741 5740 5739 5737 5736 5735 5734 5732 5731 5730 5728 5726 5725 5724 5722 5721 5719 5717 5715
5763 5762 5761 5761 5760 5759 5758 5757 5756 5755 5754 5753 5751 5750 5750 5749 5747 5746 5745 5743 5742 5740 5739 5737 5736 5735 5734 5732 5731 5730 5728 5727 5725 5724 5722 5721 5719 5717 5716 5714 5712 5710 5709
5757 5757 5756 5755 5755 5754 5753 5752 5751 5750 5749 5747 5746 5745 5744 5743 5742 5740 5739 5738 5736 5735 5733 5732 5731 5729 5728 5727 5725 5724 5722 5721 5719 5718 5716 5715 5713 5711 5709 5707 5706 5704 5702
5751 5750 5750 5749 5749 5748 5748 5747 5746 5744 5743 5742 5741 5739 5738 5737 5736 5735 5733 5732 5730 5729 5728 5726 5725 5724 5722 5721 5720 5718 5717 5715 5713 5712 5710 5708 5706 5705 5703 5701 5699 5697 5695
5745 5744 5744 5743 5743 5742 5742 5741 5740 5738 5737 5736 5735 5734 5732 5731 5730 5728 5727 5725 5724 5723 5721 5720 5718 5717 5716 5715 5713 5712 5710 5709 5707 5705 5704 5702 5700 5698 5696 5694 5692 5690 5688
5738 5738 5737 5736 5736 5735 5735 5734 5733 5732 5731 5730 5728 5727 5726 5725 5723 5722 5720 5719 5718 5716 5715 5714 5712 5710 5709 5708 5706 5705 5704 5702 5700 5699 5697 5695 5693 5692 5689 5687 5685 5683 5682
5731 5731 5730 5730 5729 5729 5728 5727 5726 5725 5724 5723 5721 5720 5719 5718 5717 5715 5714 5712 5711 5710 5708 5707 5706 5704 5702 5701 5700 5698 5697 5695 5694 5692 5691 5689 5687 5685 5683 5681 5679 5677 5675
5724 5724 5723 5723 5722 5721 5721 5720 5719 5718 5717 5716 5714 5713 5712 5710 5709 5708 5707 5705 5704 5703 5702 5701 5699 5698 5696 5695 5693 5692 5690 5689 5687 5686 5685 5683 5681 5679 5677 5675 5673 5671 5669
Wind_Speed
16 15 15 15 16 16 17 17 17 17 17 17 17 16 16 16 16 16 17 16 16 16 16 16 16 17 17 16 15 16 16 17 18 18 18 19 19 20 20 20 20 20 21
17 17 17 17 18 18 18 18 18 17 17 18 17 17 16 17 17 17 17 17 16 16 16 15 16 16 16 16 16 16 16 16 17 17 18 19 19 20 21 21 20 20 20
18 18 18 18 18 18 18 18 17 18 18 18 18 17 17 17 17 17 17 17 17 17 16 15 16 16 15 16 17 17 17 17 17 18 18 18 18 19 20 20 21 21 21
18 18 18 17 17 17 17 17 17 18 18 19 18 18 17 17 17 17 17 18 17 16 16 17 17 18 18 17 17 17 17 17 17 17 18 18 18 19 19 21 21 21 21
18 17 17 17 16 17 17 17 17 18 18 19 19 18 17 17 16 16 16 17 17 17 17 17 17 17 18 18 17 17 17 17 17 17 18 19 19 19 19 20 21 21 22
19 18 17 17 17 17 17 18 19 19 19 19 20 20 19 18 18 17 16 16 17 17 17 17 17 17 17 18 17 17 17 17 17 18 18 18 19 20 20 20 20 21 22
19 18 18 18 18 17 18 18 18 19 19 19 19 19 18 17 17 17 17 17 16 16 16 15 16 16 17 17 17 16 17 17 17 18 18 18 18 19 19 20 20 21 22
18 17 17 18 18 18 18 18 18 18 18 18 17 16 16 15 14 15 16 17 17 16 15 15 15 15 15 16 17 16 16 17 17 17 18 18 19 19 18 19 19 20 21
16 16 17 17 18 18 18 18 17 18 18 17 16 15 14 14 13 14 15 16 16 16 16 15 15 15 15 15 15 15 16 16 16 17 18 18 19 19 19 20 20 20 20
15 16 16 17 17 17 17 17 16 17 17 17 16 15 14 14 15 14 15 15 15 15 14 14 14 15 15 15 15 15 16 16 17 17 18 18 18 19 20 20 20 20 20
15 15 15 16 17 17 17 16 15 16 16 15 15 14 15 15 15 15 15 14 14 14 13 13 14 14 14 14 15 15 16 16 16 17 17 17 18 18 19 19 19 19 19
15 15 15 15 16 17 16 16 16 15 15 14 14 14 15 15 15 15 15 14 14 14 13 14 14 14 14 14 14 14 15 15 16 16 16 17 18 19 19 18 18 18 19
16 16 16 15 15 16 16 16 16 15 14 14 13 14 14 15 15 14 15 15 14 14 14 15 15 14 14 15 15 15 15 16 16 16 16 18 19 19 19 19 18 19 19
16 16 15 15 15 15 16 15 15 14 13 13 14 14 14 14 14 14 14 14 14 14 15 15 15 14 14 15 15 15 16 16 17 17 17 18 19 19 19 19 19 20 20
17 16 15 15 15 16 15 13 13 13 13 13 14 14 14 14 14 14 14 14 14 14 15 15 15 15 15 15 15 16 16 16 17 18 19 19 19 19 19 20 20 21 21
17 17 17 17 16 16 15 14 14 14 14 14 14 14 14 14 14 15 14 14 14 14 15 15 15 15 15 15 16 16 16 17 17 18 19 19 20 19 20 20 21 21 22
18 18 18 17 18 17 16 15 15 16 16 15 16 16 15 15 15 15 15 15 15 15 15 15 14 15 15 16 16 16 16 17 17 18 19 19 20 20 21 20 20 21 21
18 18 18 18 18 18 17 16 16 17 17 17 17 17 16 15 15 15 16 16 16 15 15 15 15 15 16 16 16 16 16 17 17 18 19 20 20 21 21 21 21 21 21
19 19 19 19 19 18 18 16 16 17 18 19 18 17 17 17 17 17 17 17 17 16 16 16 16 16 16 16 16 17 17 18 18 19 20 21 21 20 20 21 21 21 21
19 18 19 19 18 18 17 17 17 18 19 19 18 18 18 18 18 18 17 17 18 18 18 17 17 17 17 17 18 18 18 19 19 20 21 21 21 20 20 21 22 22 22
20 20 20 19 19 19 18 18 18 18 18 18 18 18 18 18 18 19 18 18 18 19 19 19 18 18 18 19 19 19 20 20 21 21 21 21 21 20 21 22 22 22 22
20 20 20 20 20 20 20 20 19 19 19 19 19 18 19 19 19 20 20 20 20 20 20 20 20 20 20 20 21 21 21 22 22 22 22 21 20 21 22 22 21 21 21
20 20 20 20 20 20 20 21 21 21 21 21 20 20 20 21 21 21 21 21 21 21 21 21 22 21 21 21 22 22 22 23 22 22 21 20 20 21 21 21 20 20 20
20 20 20 20 20 20 21 21 21 21 21 22 22 22 22 22 22 22 22 22 21 21 21 21 21 22 23 23 22 23 23 23 22 21 21 21 20 20 20 20 20 20 20
21 21 21 21 21 21 22 22 22 22 22 23 23 23 23 22 22 22 22 22 22 21 21 21 22 22 23 23 23 24 24 23 22 21 20 20 20 19 19 19 19 20 20
22 22 22 22 22 22 22 22 22 22 22 23 24 24 24 23 24 24 24 23 22 21 21 21 22 22 23 22 22 22 22 22 22 22 21 20 20 19 19 19 18 18 19
Wind_Direction
277 277 277 279 279 280 283 286 287 286 285 285 285 286 287 287 286 286 285 286 288 285 285 281 276 272 271 271 271 270 267 265 266 263 259 257 258 258 259 258 260 260 259
277 279 280 282 281 282 283 286 288 288 287 287 286 285 283 283 284 285 285 285 285 285 287 283 277 273 272 270 271 270 268 266 266 265 262 259 259 258 259 259 260 261 261
277 280 278 282 283 282 285 284 287 288 286 286 286 285 283 283 284 286 285 285 284 286 287 286 281 275 272 272 270 268 267 268 266 265 262 261 262 262 260 260 262 262 262
276 279 280 283 283 283 285 286 286 287 283 283 284 282 281 283 284 286 285 285 287 288 287 285 281 276 274 272 272 269 266 267 266 265 263 262 263 263 262 262 263 263 262
273 276 279 282 283 283 283 284 285 287 286 285 283 282 281 281 283 286 285 284 286 288 288 287 285 280 277 274 271 267 265 267 267 266 264 263 263 264 263 264 263 261 261
272 276 279 282 284 284 284 286 287 287 287 286 282 281 280 279 281 282 283 284 287 290 289 288 285 279 276 275 272 267 265 266 269 268 266 266 265 265 265 265 265 263 262
274 276 279 282 281 282 284 287 289 289 290 288 283 282 281 282 282 279 280 283 285 289 290 290 289 281 277 273 271 269 268 268 268 269 267 267 266 267 267 267 268 266 264
276 277 279 281 280 282 285 287 290 291 291 290 287 285 284 284 284 282 282 282 280 280 284 287 288 286 280 274 272 271 268 268 268 270 269 268 269 270 269 269 269 268 266
278 280 280 281 282 284 288 290 291 292 292 293 291 284 282 284 287 287 285 284 281 279 281 283 286 283 281 277 274 271 269 270 271 271 271 272 272 273 271 271 271 271 268
281 281 281 282 283 284 288 290 290 290 290 291 287 283 282 282 286 286 287 286 285 282 281 282 284 283 278 277 277 273 270 271 271 272 273 274 275 275 274 273 272 272 270
282 281 281 284 283 283 287 288 289 286 287 288 286 283 286 288 288 287 289 290 288 284 282 282 284 284 281 276 275 271 270 271 273 274 273 275 277 278 277 275 274 272 272
282 281 281 283 283 284 286 288 289 284 284 286 286 285 287 288 288 289 289 291 288 285 285 284 285 285 282 277 273 272 270 272 274 274 275 276 277 280 281 278 274 274 274
285 286 284 284 287 289 286 285 286 283 281 284 287 289 290 290 289 289 290 290 288 286 286 284 283 282 281 277 275 272 271 274 276 276 277 279 281 282 282 280 277 275 273
286 284 282 285 288 288 285 283 282 281 282 285 288 290 292 292 291 291 291 291 292 289 286 285 283 282 282 280 276 273 274 276 277 277 279 281 282 283 281 281 278 276 273
282 280 280 283 286 287 286 284 282 280 283 287 288 289 292 292 290 290 293 295 293 291 290 288 286 283 283 281 277 276 276 276 278 280 281 282 282 282 282 282 280 277 276
281 281 281 281 282 282 283 282 281 279 282 286 288 290 292 294 295 293 291 291 290 290 290 290 289 286 283 281 278 278 278 277 278 280 281 282 281 281 283 284 283 281 279
278 278 279 278 280 282 283 282 280 278 281 285 289 292 293 294 295 294 290 288 289 289 287 289 290 288 283 281 280 280 281 280 281 283 284 285 284 284 286 286 285 283 281
274 275 277 277 278 280 280 280 279 281 281 282 285 288 290 291 293 292 291 287 285 286 287 288 288 286 284 283 284 284 284 283 283 284 286 285 285 285 286 286 285 284 282
270 272 274 274 274 275 279 279 281 281 283 284 283 284 287 288 288 288 288 286 285 284 285 286 285 285 283 284 284 284 286 285 284 285 286 288 288 287 286 285 284 284 283
272 273 271 270 273 274 278 281 281 281 282 285 285 285 286 287 286 287 286 285 285 285 284 286 285 284 283 284 286 285 285 286 285 286 288 291 291 289 287 287 285 284 283
274 276 276 273 274 277 277 281 282 281 284 288 290 288 286 287 288 288 286 285 285 286 285 285 285 283 283 286 287 285 285 285 286 288 290 292 291 292 291 288 286 284 284
273 275 276 273 273 275 276 278 280 280 282 286 289 290 289 288 287 287 286 285 284 284 284 285 285 284 286 287 286 284 284 284 286 289 290 292 292 292 292 291 288 287 286
274 274 274 272 272 271 273 277 278 278 280 282 284 287 289 289 287 285 286 285 284 283 282 284 286 285 285 286 285 283 283 284 286 288 290 292 293 294 292 290 288 286 286
272 273 273 271 271 273 275 276 277 278 280 281 283 285 287 288 288 287 286 283 282 282 283 284 286 287 287 286 285 284 284 284 286 287 289 291 291 292 290 289 288 286 286
272 274 273 272 271 273 277 277 277 278 280 282 284 286 287 287 288 290 289 286 284 281 281 283 286 288 287 285 284 286 284 284 286 286 287 289 290 290 291 291 288 286 287
269 272 273 272 272 274 276 276 276 277 280 282 284 286 286 286 287 289 287 284 284 282 279 282 284 286 286 285 285 285 285 284 286 286 287 290 290 290 292 293 292 290 290